N8ASV Weather Reports


time (UTC)temp
F
wind
direction
speed
knots
gust
knots
rain 1hr
in
rain 24hr
in
rain mn
in
humidity
%
barometer
mb
20260902211015 93 248 1.7 4.3 0.00 0.00 0.00 57 1014.1
20260902210016 93 248 1.7 4.3 0.00 0.00 0.00 58 1014.2
20260902205016 94 225 1.7 4.3 0.00 0.00 0.00 58 1014.3
20260902204016 94 248 0.9 2.6 0.00 0.00 0.00 57 1014.3
20260902203015 94 248 1.7 3.5 0.00 0.00 0.00 57 1014.3
20260902202015 94 248 1.7 2.6 0.00 0.00 0.00 56 1014.3
20260902201015 95 248 1.7 3.5 0.00 0.00 0.00 55 1014.3
20260902200016 95 248 1.7 2.6 0.00 0.00 0.00 56 1014.4
20260902195016 95 248 1.7 3.5 0.00 0.00 0.00 55 1014.6
20260902194016 96 248 1.7 4.3 0.00 0.00 0.00 53 1014.7
20260902193036 95 248 1.7 4.3 0.00 0.00 0.00 54 1014.8
20260902192015 96 248 1.7 4.3 0.00 0.00 0.00 55 1015.0
20260902191015 96 248 1.7 3.5 0.00 0.00 0.00 54 1015.1
20260902190017 95 248 1.7 3.5 0.00 0.00 0.00 55 1015.2
20260902185017 95 203 1.7 4.3 0.00 0.00 0.00 56 1015.2
20260902184017 95 180 1.7 3.5 0.00 0.00 0.00 58 1015.3
20260902183037 95 248 1.7 5.2 0.00 0.00 0.00 56 1015.3
20260902182057 95 225 1.7 3.5 0.00 0.00 0.00 58 1015.3
20260902181017 95 203 2.6 8.7 0.00 0.00 0.00 56 1015.4
20260902180017 95 225 0.9 2.6 0.00 0.00 0.00 57 1015.4
20260902175057 95 248 1.7 2.6 0.00 0.00 0.00 56 1015.6
20260902174017 95 158 0.9 1.7 0.00 0.00 0.00 57 1015.7
20260902173017 95 248 0.9 2.6 0.00 0.00 0.00 58 1015.9
20260902172017 94 248 2.6 6.1 0.00 0.00 0.00 57 1015.9
20260902171017 94 248 0.9 3.5 0.00 0.00 0.00 58 1016.0
20260902170017 94 248 1.7 5.2 0.00 0.00 0.00 55 1016.1
20260902165017 93 248 1.7 2.6 0.00 0.00 0.00 54 1016.2
20260902164017 94 248 2.6 4.3 0.00 0.00 0.00 52 1016.2
20260902163017 94 203 1.7 3.5 0.00 0.00 0.00 55 1016.2
20260902162037 94 248 0.9 2.6 0.00 0.00 0.00 54 1016.3
20260902161057 93 203 1.7 4.3 0.00 0.00 0.00 55 1016.2
20260902160016 93 203 1.7 4.3 0.00 0.00 0.00 58 1016.4
20260902155017 93 203 1.7 3.5 0.00 0.00 0.00 58 1016.3
20260902154017 92 203 0.9 4.3 0.00 0.00 0.00 59 1016.4
20260902153017 92 203 0.9 2.6 0.00 0.00 0.00 60 1016.5
20260902152016 91 203 0.9 3.5 0.00 0.00 0.00 60 1016.5
20260902151016 91 180 0.9 3.5 0.00 0.00 0.00 62 1016.6
20260902150016 90 0.0 4.3 0.00 0.00 0.00 64 1016.5
20260902145016 89 0.0 0.9 0.00 0.00 0.00 65 1016.6
20260902144036 88 0.0 0.9 0.00 0.00 0.00 67 1016.6
20260902143016 87 0.0 0.9 0.00 0.00 0.00 71 1016.6
20260902142016 86 158 0.9 1.7 0.00 0.00 0.00 71 1016.7
20260902141016 84 158 0.9 2.6 0.00 0.00 0.00 76 1016.6
20260902140016 83 180 1.7 3.5 0.00 0.00 0.00 76 1016.6
20260902135016 82 158 1.7 3.5 0.00 0.00 0.00 77 1016.7
20260902134016 80 158 0.9 2.6 0.00 0.00 0.00 79 1016.7
20260902133016 79 180 0.9 2.6 0.00 0.00 0.00 83 1016.8
20260902132016 77 180 0.9 1.7 0.00 0.00 0.00 85 1016.7
20260902131036 76 158 0.9 2.6 0.00 0.00 0.00 88 1016.6
20260902130056 75 0.0 1.7 0.00 0.00 0.00 90 1016.7
20260902125016 74 0.0 1.7 0.00 0.00 0.00 94 1016.6
20260902124016 73 0.0 0.0 0.00 0.00 0.00 94 1016.6
20260902123016 72 0.0 0.0 0.00 0.00 0.00 94 1016.6
20260902122036 70 0.0 0.0 0.00 0.00 0.00 93 1016.6
20260902121016 70 0.0 0.0 0.00 0.00 0.00 93 1016.4
20260902120016 70 0.0 0.0 0.00 0.00 0.00 93 1016.3
20260902115016 69 0.0 0.0 0.00 0.00 0.00 92 1016.3
20260902114016 69 0.0 0.0 0.00 0.00 0.00 92 1016.2
20260902113015 69 0.0 0.0 0.00 0.00 0.00 92 1016.1
20260902112015 69 0.0 0.0 0.00 0.00 0.00 93 1016.2
20260902111036 69 0.0 0.0 0.00 0.00 0.00 92 1016.0
20260902110015 69 0.0 0.0 0.00 0.00 0.00 92 1015.9
20260902105015 69 0.0 0.0 0.00 0.00 0.00 92 1016.0
20260902104015 69 0.0 0.0 0.00 0.00 0.00 92 1016.0
20260902103015 69 0.0 0.0 0.00 0.00 0.00 92 1016.0
20260902102015 69 0.0 0.0 0.00 0.00 0.00 92 1015.9
20260902101017 70 0.0 0.0 0.00 0.00 0.00 92 1015.9
20260902100017 70 0.0 0.0 0.00 0.00 0.00 92 1015.8
20260902095017 70 0.0 0.0 0.00 0.00 0.00 92 1015.8
20260902094017 70 0.0 0.0 0.00 0.00 0.00 92 1015.8
20260902093017 70 0.0 0.0 0.00 0.00 0.00 92 1015.7
20260902092017 70 0.0 0.0 0.00 0.00 0.00 92 1015.8
20260902091017 70 0.0 0.0 0.00 0.00 0.00 92 1015.6
20260902090017 70 0.0 0.0 0.00 0.00 0.00 92 1015.5
20260902085037 70 0.0 0.0 0.00 0.00 0.00 92 1015.5
20260902084037 70 0.0 0.0 0.00 0.00 0.00 92 1015.4
20260902083017 70 0.0 0.0 0.00 0.00 0.00 92 1015.2
20260902082017 70 0.0 0.0 0.00 0.00 0.00 92 1015.2
20260902081037 70 0.0 0.0 0.00 0.00 0.00 91 1015.1
20260902080017 70 0.0 0.0 0.00 0.00 0.00 91 1015.0
20260902075017 70 0.0 0.0 0.00 0.00 0.00 91 1015.1
20260902074037 70 0.0 0.0 0.00 0.00 0.00 91 1014.9
20260902073017 71 0.0 0.0 0.00 0.00 0.00 91 1015.0
20260902072017 71 0.0 0.0 0.00 0.00 0.00 92 1014.9
20260902071016 71 0.0 0.0 0.00 0.00 0.00 91 1015.0
20260902070016 71 0.0 0.0 0.00 0.00 0.00 91 1015.0
20260902065037 71 0.0 0.0 0.00 0.00 0.00 91 1015.1
20260902064017 71 0.0 0.0 0.00 0.00 0.00 91 1015.0
20260902063016 71 0.0 0.0 0.00 0.00 0.00 91 1015.0
20260902062016 72 0.0 0.0 0.00 0.00 0.00 91 1015.0
20260902061016 72 0.0 0.0 0.00 0.00 0.00 91 1015.0
20260902060016 72 0.0 0.0 0.00 0.00 0.00 91 1015.1
20260902055017 72 0.0 0.0 0.00 0.00 0.00 90 1015.1
20260902054036 72 0.0 0.0 0.00 0.00 0.00 91 1015.1
20260902053016 72 0.0 0.0 0.00 0.00 0.00 91 1015.2
20260902052016 72 0.0 0.0 0.00 0.00 0.00 91 1015.1
20260902051016 72 0.0 0.0 0.00 0.00 0.00 90 1015.1
20260902050036 72 0.0 0.0 0.00 0.00 0.00 90 1015.2
20260902045016 73 0.0 0.0 0.00 0.00 0.00 90 1015.1
20260902044016 73 0.0 0.0 0.00 0.00 0.00 90 1015.2
20260902043017 73 0.0 0.0 0.00 0.00 0.00 90 1015.2
20260902042016 73 0.0 0.0 0.00 0.00 0.00 90 1015.1
20260902041016 73 0.0 0.0 0.00 0.00 0.00 90 1015.1
20260902040016 73 0.0 0.0 0.00 0.00 0.00 90 1015.2
20260902035015 74 0.0 0.0 0.00 0.00 0.00 89 1015.2
20260902034015 74 0.0 0.0 0.00 0.00 0.00 89 1015.1
20260902033015 74 0.0 0.0 0.00 0.00 0.00 89 1015.1
20260902032016 74 0.0 0.0 0.00 0.00 0.00 89 1015.1
20260902031015 75 0.0 0.0 0.00 0.00 0.00 89 1015.1
20260902030015 75 0.0 0.0 0.00 0.00 0.00 88 1015.1
20260902025015 75 0.0 0.0 0.00 0.00 0.00 88 1015.1
20260902024015 75 0.0 0.0 0.00 0.00 0.00 88 1015.1
20260902023015 75 0.0 0.0 0.00 0.00 0.00 88 1015.0
20260902022017 76 0.0 0.0 0.00 0.00 0.00 87 1015.0
20260902021017 76 0.0 0.0 0.00 0.00 0.00 87 1014.9
20260902020017 76 0.0 0.0 0.00 0.00 0.00 86 1015.0
20260902015017 76 0.0 0.0 0.00 0.00 0.00 86 1014.9
20260902014017 77 0.0 0.0 0.00 0.00 0.00 85 1014.8
20260902013037 77 0.0 0.0 0.00 0.00 0.00 85 1014.8
20260902012058 77 0.0 0.0 0.00 0.00 0.00 84 1014.7
20260902011017 78 0.0 0.0 0.00 0.00 0.00 83 1014.4
20260902010037 78 0.0 0.9 0.00 0.00 0.00 82 1014.5
20260902005017 79 0.0 0.0 0.00 0.00 0.00 82 1014.3
20260902004017 80 0.0 0.0 0.00 0.00 0.00 81 1014.3
20260902003017 80 0.0 0.0 0.00 0.00 0.00 80 1014.3
20260902002017 81 0.0 0.0 0.00 0.00 0.00 79 1014.3
20260902001017 82 0.0 0.0 0.00 0.00 0.00 78 1014.4
20260902000017 83 0.0 0.0 0.00 0.00 0.00 76 1014.7
20260901235037 84 0.0 0.0 0.00 0.00 0.00 75 1014.6
20260901234016 85 0.0 0.0 0.00 0.00 0.00 74 1014.6
20260901233017 86 0.0 0.0 0.00 0.00 0.00 72 1014.7
20260901232057 87 0.0 0.0 0.00 0.00 0.00 71 1014.7
20260901231017 88 0.0 0.0 0.00 0.00 0.00 68 1014.8
20260901230016 89 0.0 0.9 0.00 0.00 0.00 66 1014.8
20260901225017 90 0.0 0.0 0.00 0.00 0.00 64 1014.7
20260901224016 91 0.0 0.9 0.00 0.00 0.00 61 1014.7
20260901223056 92 248 0.9 1.7 0.00 0.00 0.00 58 1014.6
20260901222056 92 248 0.9 1.7 0.00 0.00 0.00 58 1014.6
20260901221016 93 0.0 1.7 0.00 0.00 0.00 57 1014.7
20260901220036 93 248 0.9 2.6 0.00 0.00 0.00 56 1014.5
20260901215016 93 248 0.9 2.6 0.00 0.00 0.00 56 1014.5
20260901214016 93 248 0.9 1.7 0.00 0.00 0.00 55 1014.5
20260901213016 93 248 0.9 2.6 0.00 0.00 0.00 55 1014.5
20260901212016 93 203 0.9 2.6 0.00 0.00 0.00 55 1014.6